Location: Unspecified
(0.0000°N, 0.0000°E)
Time: 10:20:46
(UTC+00:00)

Courier 1B Rocket - Pass Details

Date: 22 December 2018
Orbit: 920 x 1202 km, 28.3° (Epoch: 17 January)

Event Time Altitude Azimuth Distance (km) Brightness Sun altitude
Rises 12:23:57 0° 319° (NW) 3,750 7.9 65.8°
Reaches altitude 10° 12:26:59 10° 331° (NNW) 2,846 7.4 65.6°
Maximum altitude 12:32:54 29° 29° (NNE) 1,886 6.6 65.1°
Drops below altitude 10° 12:39:09 10° 86° (E) 3,026 7.6 64.6°
Sets 12:42:28 0° 97° (E) 4,025 8.1 64.3°
